[[{"header":{"parameterUnit":"m.s-1","parameterCategory":1,"la1":30.2991,"la2":30.254,"lo1":-89.0895,"lo2":-89.0444,"dy":0.0017,"dx":0.0017,"nx":28,"ny":28,"refTime":"2025-08-22T09:00:00:Z","depth":0,"parameterNumber":2,"parameterNumberName":"U-component_of_WINDS"},"data":[0,0,0,0,0,0,0,0,0,0,0,0,0,0,0,0,0,0,0,0,0,0,0,0,0,0,0,0,0,0,0,0,0,0,0,0,0,0,0,0,0,0,0,0,0,0,0,0,0,0,0,0,0,0,0,0,0,0,1.7521,1.7521,0,1.7525,1.7525,1.7526,1.7518,1.7518,1.7518,1.7517,1.7522,1.7523,1.7523,0,0,0,0,0,0,0,0,0,0,0,0,0,1.7506,1.7506,1.7521,1.7521,1.7521,1.7525,1.7525,1.7526,1.7518,1.7518,1.7518,1.7517,1.7522,1.7523,1.7523,0,0,0,0,0,0,0,0,0,0,0,0,0,1.7512,1.7507,1.7521,1.7518,1.7518,1.7525,1.7525,1.7526,1.7518,1.7518,1.7518,1.7517,1.7522,1.7523,1.7523,1.7534,0,0,1.7525,1.7525,0,0,0,0,0,0,0,0,1.7511,1.7512,1.7518,1.7518,1.7518,1.7521,1.7522,1.7528,1.7518,1.7518,1.7517,1.7517,1.7522,1.7523,1.7524,1.7534,1.7534,1.7525,1.7525,1.7525,1.7525,0,0,0,0,0,0,0,1.7511,1.7512,1.7523,1.7518,1.7518,1.7516,1.7517,1.7523,1.7522,1.7518,1.7518,1.7518,1.7522,1.7524,1.7524,1.7534,1.7525,1.7525,1.7526,1.7526,1.7553,1.7553,0,0,0,0,0,0,1.7511,1.7512,1.7523,1.7523,1.7514,1.7517,1.7517,1.752,1.7522,1.7522,1.7518,1.7518,1.7523,1.7524,1.7524,1.7537,1.7525,1.7526,1.7526,1.7553,1.7553,1.7553,0,0,0,0,0,0,1.7511,1.7512,1.7522,1.7517,1.7518,1.7518,1.7521,1.7521,1.7522,1.7522,1.7522,1.7521,1.7523,1.7524,1.7531,1.7537,1.7526,1.7527,1.7552,1.7553,1.7553,1.7562,0,0,0,0,0,0,1.751,1.7512,1.7516,1.7517,1.7519,1.7529,1.7521,1.7521,1.7523,1.7522,1.7524,1.7524,1.7523,1.7531,1.7532,1.7537,1.7527,1.7552,1.7552,1.7553,1.7561,1.7563,1.7564,0,0,0,0,0,1.751,1.7518,1.7516,1.7518,1.7524,1.753,1.753,1.7528,1.7524,1.7528,1.7528,1.7524,1.7536,1.7532,1.7533,1.7539,1.7551,1.7552,1.7553,1.756,1.7562,1.7564,0,0,0,0,0,0,1.7518,1.7519,1.7516,1.7525,1.7528,1.7528,1.7533,1.753,1.7534,1.7533,1.753,1.7531,1.7539,1.754,1.7535,1.7549,1.7543,1.7544,1.7548,1.755,1.7551,1.7551,1.7527,0,0,0,0,0,1.7521,1.7526,1.7526,1.7534,1.7535,1.7534,1.7537,1.7535,1.7537,1.7538,1.7538,1.754,1.7545,1.7547,1.7551,1.7561,1.7561,1.7566,1.7567,1.7569,1.757,1.7574,1.7576,1.7556,1.7556,1.7556,0,0,1.7527,1.7528,1.7531,1.7536,1.7537,1.7542,1.7535,1.754,1.7544,1.7539,1.7546,1.7546,1.7549,1.7557,1.7561,1.7558,1.7575,1.757,1.7571,1.7571,1.7575,1.7577,1.7579,1.7557,1.7557,1.7557,0,0,1.754,1.7541,1.7548,1.7549,1.7552,1.7551,1.7552,1.7554,1.7554,1.7561,1.7557,1.7561,1.7569,1.757,1.7572,1.7586,1.7582,1.7587,1.7595,1.7599,1.7601,1.7602,1.7607,1.7608,1.7588,1.7588,1.7588,0,1.7547,1.7554,1.7552,1.7557,1.7559,1.7555,1.7561,1.7563,1.7567,1.7568,1.7565,1.7574,1.7575,1.7584,1.7587,1.7589,1.759,1.7587,1.7601,1.7602,1.7604,1.7608,1.7609,1.7589,1.7589,1.7589,1.7589,0,1.7562,1.7567,1.7572,1.7575,1.7578,1.7584,1.7583,1.7586,1.7584,1.7584,1.7591,1.7592,1.7596,1.7598,1.7597,1.7607,1.7605,1.7601,1.7595,1.7606,1.761,1.7611,1.759,1.759,1.7589,1.7589,0,0,1.758,1.7582,1.7583,1.7585,1.7587,1.7591,1.7597,1.76,1.7603,1.7605,1.761,1.7616,1.7613,1.7615,1.7614,1.7618,1.7628,1.7614,1.7614,1.7616,1.7639,1.7641,1.7643,1.7626,1.7626,1.7627,1.7638,0,1.7592,1.7602,1.76,1.761,1.7614,1.761,1.7615,1.7617,1.7617,1.7621,1.7621,1.7625,1.7621,1.7622,1.7626,1.7626,1.7632,1.7625,1.763,1.763,1.7629,1.7645,1.7647,1.7658,1.764,1.764,1.764,0,1.7608,1.7611,1.7621,1.7622,1.7623,1.7628,1.7631,1.7635,1.7637,1.7637,1.7639,1.7637,1.7642,1.7637,1.7644,1.7639,1.7641,1.7642,1.7642,1.7642,1.7635,1.7644,1.7661,1.7663,1.7643,1.7642,1.7642,0,1.7619,1.7625,1.7632,1.7633,1.7635,1.7638,1.7639,1.7641,1.7643,1.7646,1.7647,1.7651,1.7653,1.7656,1.7654,1.765,1.7662,1.7656,1.7661,1.7661,1.7663,1.7663,1.768,1.7666,1.7666,1.7666,1.7666,0,1.7632,1.7638,1.7637,1.7641,1.7647,1.7646,1.7652,1.7653,1.7654,1.7658,1.7655,1.7659,1.7657,1.7661,1.766,1.7666,1.7668,1.7667,1.7667,1.7667,1.7667,1.7668,1.7667,1.7666,1.7666,1.7666,1.7666,0,1.7645,1.7644,1.7651,1.7652,1.7653,1.7658,1.7659,1.7662,1.7662,1.7667,1.7668,1.7668,1.7672,1.7671,1.7676,1.7675,1.7683,1.7682,1.7682,1.7682,1.7687,1.7686,1.7704,1.7706,1.7691,1.7692,1.7692,0,1.7653,1.7658,1.7659,1.7662,1.7663,1.7667,1.7669,1.7668,1.767,1.7673,1.7676,1.768,1.7683,1.769,1.769,1.7694,1.7692,1.7698,1.7693,1.7693,1.7691,1.7691,1.7691,1.7699,1.7699,1.77,1.77,0,1.7668,1.7667,1.7671,1.7674,1.7677,1.7679,1.7681,1.7684,1.7682,1.7685,1.7689,1.7692,1.7696,1.77,1.7703,1.7704,1.7702,1.7702,1.7703,1.7703,1.7702,1.7702,1.7684,1.7701,1.7701,1.7701,1.7701,1.7701,1.7678,1.7682,1.7683,1.7687,1.7689,1.7691,1.7694,1.7695,1.7698,1.7701,1.7701,1.7705,1.7707,1.7711,1.7712,1.7716,1.7714,1.7716,1.7716,1.7716,1.7716,1.7702,1.7717,1.7717,1.7717,1.7716,1.7716,0,1.7692,1.7693,1.7696,1.7699,1.7702,1.77,1.7702,1.7705,1.7709,1.7711,1.7714,1.7718,1.7722,1.7723,1.7726,1.7729,1.7727,1.773,1.7729,1.7729,1.7719,1.7717,1.773,1.773,1.773,1.773,1.773,1.773,1.7699,1.7705,1.7705,1.7711,1.7712,1.7717,1.7718,1.772,1.7721,1.7727,1.773,1.773,1.7731,1.7735,1.7738,1.7738,1.7739,1.7742,1.7741,1.7731,1.773,1.7729,1.7727,1.7742,1.7742,1.7751,1.7751,1.7751]},{"header":{"parameterUnit":"m.s-1","parameterCategory":1,"la1":30.2991,"la2":30.254,"lo1":-89.0895,"lo2":-89.0444,"dy":0.0017,"dx":0.0017,"nx":28,"ny":28,"refTime":"2025-08-22T09:00:00:Z","depth":0,"parameterNumber":3,"parameterNumberName":"V-component_of_WINDS"},"data":[0,0,0,0,0,0,0,0,0,0,0,0,0,0,0,0,0,0,0,0,0,0,0,0,0,0,0,0,0,0,0,0,0,0,0,0,0,0,0,0,0,0,0,0,0,0,0,0,0,0,0,0,0,0,0,0,0,0,0.8042,0.8043,0,0.8083,0.8084,0.8084,0.8113,0.8114,0.8114,0.8114,0.8154,0.8155,0.8155,0,0,0,0,0,0,0,0,0,0,0,0,0,0.7986,0.7987,0.8042,0.8043,0.8043,0.8083,0.8084,0.8084,0.8113,0.8114,0.8114,0.8114,0.8154,0.8155,0.8156,0,0,0,0,0,0,0,0,0,0,0,0,0,0.8017,0.7987,0.8042,0.8063,0.8065,0.8083,0.8084,0.8085,0.8113,0.8114,0.8114,0.8114,0.8153,0.8154,0.8156,0.8156,0,0,0.8159,0.816,0,0,0,0,0,0,0,0,0.8015,0.8019,0.8059,0.8061,0.8064,0.8094,0.8079,0.8108,0.8113,0.8095,0.8114,0.8115,0.8133,0.8136,0.8143,0.8158,0.816,0.816,0.816,0.8161,0.8161,0,0,0,0,0,0,0,0.8013,0.8017,0.8058,0.8059,0.8062,0.8069,0.8074,0.8084,0.8111,0.8096,0.8099,0.8103,0.8135,0.8142,0.8144,0.816,0.816,0.8161,0.8161,0.8162,0.8176,0.8176,0,0,0,0,0,0,0.8008,0.8015,0.8057,0.806,0.804,0.8069,0.8075,0.8084,0.8111,0.8116,0.8103,0.8105,0.814,0.8143,0.8146,0.8147,0.8161,0.8162,0.8163,0.8177,0.8176,0.8176,0,0,0,0,0,0,0.8006,0.8011,0.8055,0.8038,0.8044,0.807,0.808,0.8084,0.8092,0.8116,0.8121,0.8105,0.814,0.8144,0.8153,0.8149,0.8163,0.8164,0.8177,0.8177,0.8176,0.8151,0,0,0,0,0,0,0.8005,0.8011,0.8012,0.8038,0.8045,0.8063,0.8079,0.8085,0.8094,0.8096,0.812,0.8124,0.8141,0.8151,0.8155,0.8151,0.8165,0.8178,0.8177,0.8176,0.8152,0.8149,0.8147,0,0,0,0,0,0.8003,0.8003,0.8012,0.8017,0.8047,0.8063,0.8067,0.8086,0.8093,0.8094,0.811,0.8123,0.8149,0.8152,0.8156,0.8153,0.8178,0.8177,0.8176,0.8153,0.815,0.8147,0,0,0,0,0,0,0.7974,0.8006,0.8017,0.8025,0.8041,0.8068,0.8069,0.8082,0.8096,0.8097,0.812,0.8125,0.8132,0.8143,0.8146,0.8154,0.8165,0.8165,0.8146,0.8143,0.8141,0.8138,0.8166,0,0,0,0,0,0.7969,0.798,0.8007,0.8012,0.802,0.8043,0.8051,0.8064,0.8081,0.8088,0.8104,0.812,0.8131,0.8138,0.815,0.8154,0.8159,0.8154,0.8151,0.8149,0.8149,0.8151,0.8148,0.8173,0.8173,0.8173,0,0,0.7959,0.7978,0.7983,0.8007,0.8021,0.8031,0.8048,0.8058,0.8065,0.8089,0.8099,0.8111,0.813,0.8136,0.814,0.8146,0.8143,0.8148,0.8146,0.8147,0.8149,0.8147,0.8145,0.8173,0.8173,0.8173,0,0,0.7944,0.796,0.7965,0.7979,0.8,0.8016,0.8017,0.8041,0.8051,0.8061,0.8079,0.8087,0.8107,0.8119,0.8128,0.8117,0.8129,0.812,0.8107,0.8109,0.8107,0.8105,0.81,0.8098,0.812,0.812,0.812,0,0.7928,0.7944,0.7966,0.7975,0.7985,0.8007,0.8012,0.8024,0.8048,0.8053,0.806,0.8085,0.8099,0.8108,0.8105,0.8112,0.8113,0.8117,0.8105,0.8104,0.8103,0.8098,0.8096,0.8118,0.8119,0.8119,0.8119,0,0.7923,0.7934,0.7935,0.7958,0.7968,0.7975,0.7997,0.8004,0.8017,0.8031,0.8041,0.8058,0.8074,0.8077,0.809,0.8088,0.8091,0.8101,0.8113,0.8099,0.8095,0.8093,0.8117,0.8117,0.8117,0.8118,0,0,0.7891,0.7926,0.7926,0.7936,0.7961,0.7969,0.7977,0.7993,0.7998,0.8013,0.8019,0.8035,0.8045,0.8054,0.8068,0.807,0.8059,0.808,0.8081,0.8074,0.8057,0.8048,0.8045,0.8068,0.8068,0.8067,0.8055,0,0.7879,0.7895,0.7914,0.7922,0.7932,0.7954,0.796,0.7975,0.7989,0.7998,0.8013,0.8023,0.8036,0.8042,0.8045,0.806,0.8056,0.8061,0.8072,0.8072,0.8066,0.8044,0.8035,0.8022,0.8053,0.8053,0.8053,0,0.7868,0.7882,0.7891,0.7915,0.7919,0.7925,0.7941,0.795,0.7967,0.7977,0.7988,0.8003,0.801,0.8021,0.8032,0.8035,0.8041,0.8049,0.8049,0.8049,0.8061,0.8043,0.8018,0.8015,0.8051,0.8051,0.8051,0,0.7842,0.7864,0.7872,0.788,0.7908,0.7911,0.7923,0.7941,0.7949,0.7962,0.7967,0.7981,0.7989,0.7999,0.8017,0.8023,0.8024,0.8037,0.8031,0.8031,0.803,0.8029,0.8004,0.8035,0.8035,0.8036,0.8036,0,0.7826,0.783,0.7861,0.7866,0.7871,0.7894,0.7898,0.7911,0.7927,0.7934,0.7953,0.7959,0.7983,0.7992,0.8006,0.8011,0.8015,0.8022,0.8025,0.802,0.8018,0.8023,0.8023,0.8035,0.8035,0.8035,0.8035,0,0.7798,0.7819,0.7829,0.7854,0.7861,0.7863,0.7885,0.789,0.7905,0.7913,0.7916,0.7939,0.795,0.797,0.7986,0.7995,0.7997,0.8004,0.7992,0.7993,0.7986,0.7986,0.7962,0.7959,0.7993,0.7993,0.7993,0,0.7786,0.779,0.7816,0.7822,0.7833,0.7844,0.7852,0.7874,0.7882,0.7902,0.7904,0.7917,0.7928,0.7944,0.7961,0.7973,0.798,0.7971,0.7982,0.7975,0.7978,0.7977,0.7977,0.7968,0.7967,0.7967,0.7966,0,0.7762,0.7772,0.7784,0.7799,0.7809,0.7822,0.7835,0.7839,0.7864,0.7872,0.7884,0.7892,0.7909,0.7921,0.7935,0.7946,0.796,0.7963,0.7962,0.7955,0.7947,0.795,0.7983,0.7963,0.7963,0.7964,0.7964,0.7964,0.774,0.7744,0.7763,0.7776,0.7789,0.7801,0.7807,0.7822,0.7833,0.7849,0.7861,0.7871,0.7888,0.7909,0.7919,0.7927,0.7933,0.7932,0.7932,0.7931,0.7928,0.7947,0.793,0.793,0.793,0.793,0.793,0,0.7716,0.7729,0.7741,0.7759,0.7769,0.7782,0.7798,0.7805,0.7814,0.7829,0.7839,0.7852,0.7863,0.7882,0.7894,0.7897,0.7903,0.7899,0.7899,0.7901,0.7922,0.7921,0.7894,0.7894,0.7894,0.7894,0.7894,0.7894,0.7704,0.7712,0.7724,0.7737,0.7751,0.7762,0.7769,0.778,0.7792,0.7806,0.7816,0.7828,0.7844,0.7858,0.7868,0.7873,0.7876,0.787,0.7876,0.7896,0.7899,0.7902,0.7901,0.7871,0.7871,0.7854,0.7854,0.7854]}]]